User: anonymous   Login
Location: Wawayanda State Park
(41.1833°N, 74.4333°W)
Time: 06:09:43
(UTC-04:00)
Language:

RESURS DK-1 - Orbit

View from above orbital plane
View from above orbital plane
View from above satellite
View from above satellite

Ground track
Ground track

The orbit data is extracted from the following two-line orbital elements,

1 29228U 06021A   17116.89998550 +.00000352 +00000-0 +34107-4 0  9990
2 29228 069.9359 228.5601 0002475 022.8995 337.2275 15.02138188600397
Epoch (UTC): 26 April 2017 21:35:58
Eccentricity: 0.0002475
inclination: 69.9359°
perigee height: 558 km
apogee height: 562 km
right ascension of ascending node: 228.5601°
argument of perigee: 22.8995°
revolutions per day: 15.02138188
mean anomaly at epoch: 337.2275°
orbit number at epoch: 60039

The dashed part of the orbit path shows where the satellite is in the earth's shadow,  

DLR